Hourly Weather Roundup
Issued by NWS Central Illinois

Home | Current Version | Previous Version | Text Only | Print | Product List | Glossary On
Versions: 1 2 3 4 5 6 7 8 9 10 11 12 13 14 15 16 17 18 19 20 21 22 23 24 25 26 27 28 29 30 31 32 33 34 35 36 37 38 39 40 41 42 43 44 45 46 47 48 49 50
000
NZUS43 KILX 270210
HWRILX

AREA WEATHER ROUNDUP
NATIONAL WEATHER SERVICE, LINCOLN IL
800 PM CST SUN FEB 26 2017


CITY           SKY/WX    TMP DP  RH WIND       PRES   REMARKS
BLOOMINGTON    CLEAR     34  24  67 S12       30.06R WCI  25
CHAMPAIGN      PTCLDY    34  20  56 S10       30.08S WCI  26
DECATUR        CLOUDY    40  22  48 S10       30.08S WCI  33
EFFINGHAM      CLOUDY    44  29  56 S7        30.13R
FLORA          CLOUDY    43  29  59 SW5       30.13R
GALESBURG      CLOUDY    40  33  76 W5          N/A
JACKSONVILLE   CLEAR     38  24  57 S7        30.07R WCI  32
LACON          PTCLDY    40  25  55 S8        30.03R WCI  35
LAWRENCEVILLE  CLOUDY    43  27  53 S7        30.13R
LITCHFIELD     CLOUDY    40  31  69 S9        30.09R WCI  34
$$


CITY           SKY/WX    TMP DP  RH WIND       PRES   REMARKS
LINCOLN        CLEAR     36  25  65 S3        30.07R
MACOMB         CLEAR     39  24  54 S10       30.05R WCI  32
MATTOON        PTCLDY    42  22  44 S3        30.09R
MT CARMEL AP   CLOUDY    44  26  48 SW6       30.13R
OLNEY-NOBLE AP CLOUDY    43  28  56 CALM      30.13R
PARIS          CLOUDY    36  25  65 S5        30.11S WCI  32
PEORIA         CLEAR     39  24  55 S12       30.04R WCI  32
PONTIAC        CLEAR     39  27  62 S13       30.05R WCI  31
RANTOUL        PTCLDY    42  26  52 S9        30.07F
SPRINGFIELD    CLEAR     40  23  50 S10       30.07R WCI  33
TAYLORVILLE    CLOUDY    39  24  54 S7        30.09R WCI  34
$$

...REGIONAL REPORTS...


CITY           SKY/WX    TMP DP  RH WIND       PRES   REMARKS
CHICAGO O`HARE LGT RAIN  44  28  53 SW16G25   29.99R
KANKAKEE       CLEAR     37  24  60 SW13      30.06R WCI  28
MOLINE         MOCLDY    41  30  65 W6        30.00R
MOUNT STERLING CLEAR     37  24  60 S10       30.04R WCI  30
MOUNT VERNON   LGT RAIN  42  34  73 SW8       30.13R
PITTSFIELD     CLEAR     39  30  68 S7        30.07R WCI  34
QUINCY         CLEAR     38  27  64 S10       30.04R WCI  31
ROCKFORD       CLEAR     38  29  70 SW9       29.99R WCI  31
$$


CITY           SKY/WX    TMP DP  RH WIND       PRES   REMARKS
BURLINGTON     CLOUDY    42  34  73 CALM      30.02R
CEDAR RAPIDS   CLEAR     31  24  75 NW6       29.99R WCI  25
DES MOINES     CLEAR     36  20  52 CALM      30.00R
KIRKSVILLE     CLEAR     36  20  52 S8        30.01R WCI  30
OTTUMWA        MOCLDY    38  21  50 CALM      30.01R
ST LOUIS       CLOUDY    43  32  65 S9        30.11R
$$


CITY           SKY/WX    TMP DP  RH WIND       PRES   REMARKS
TERRE HAUTE    CLOUDY    41  24  51 SE5       30.11S
EVANSVILLE     CLOUDY    49  21  33 SW8G20    30.14S
INDIANAPOLIS   CLOUDY    40  17  39 S8        30.12S WCI  34
LAFAYETTE      CLOUDY    41  23  48 S6        30.09S
MADISON        CLEAR     36  21  54 VRB7      29.94R WCI  30
MILWAUKEE      PTCLDY    37  23  56 SW7       29.95R WCI  32
$$






USA.gov is the U.S. government's official web portal to all federal, state and local government web resources and services.